Weather History for EICK - May, 2013

Change the Weather History Date:

Saturday, May 4, 2013

  Actual Average Record
Temperature  
Mean Temperature 50 °F -  
Max Temperature 57 °F 58 °F 68 °F (2007)
Min Temperature 42 °F 45 °F 37 °F (2015)
Degree Days  
Heating Degree Days 16    
Moisture  
Dew Point 45 °F    
Average Humidity 83    
Maximum Humidity 100    
Minimum Humidity 51    
Precipitation  
Precipitation 0.00 in 0.11 in - ()
Sea Level Pressure  
Sea Level Pressure 29.99 in    
Wind  
Wind Speed 13 mph ()    
Max Wind Speed 21 mph    
Max Gust Speed 32 mph    
Visibility 6.7 miles    
Events Rain    
Averages and records for this station are not official NWS values.
T = Trace of Precipitation, MM = Missing Value Source: Averaged Metar Reports

Daily Weather History Graph

Daily Weather History Graph

Search for Another Location

Airport or City:

Trip Planner

Search our weather history database for the weather conditions in past years. The results will help you decide how hot, cold, wet, or windy it might be!

Date:

Astronomy

May. 04, 2013 Rise Set
Actual Time 5:58 AM IST 9:03 PM IST
Civil Twilight 5:19 AM IST 9:43 PM IST
Nautical Twilight 4:28 AM IST 10:35 PM IST
Astronomical Twilight 3:21 AM IST 11:42 PM IST
Moon 3:30 AM IST (5/4) 3:09 PM IST (5/4)
Length of Visible Light 16h 23m
Length of Day
15h 04m
Waning Crescent, 29% of the Moon is Illuminated
May 4
Waning Crescent
May 10
New
May 18
First Quarter
May 25
Full
May 31
Last Quarter

Hourly Weather History & Observations

Time (IST) Temp. Windchill Dew Point Humidity Pressure Visibility Wind Dir Wind Speed Gust Speed Precip Events Conditions
12:00 AM 46.4 °F 39.5 °F 44.6 °F 93% 29.92 in 6.2 mi SW 17.3 mph - N/A   Mostly Cloudy
12:30 AM 46.4 °F 40.1 °F 46.4 °F 100% 29.92 in 6.2 mi SW 15.0 mph - N/A   Mostly Cloudy
1:00 AM 47 °F - 46 °F 97% 29.92 in 16 mi WSW 13.4 mph - - Rain Light Rain Showers
1:00 AM 48.2 °F - 46.4 °F 93% 29.89 in 6.2 mi WSW 13.8 mph - N/A   Mostly Cloudy
1:30 AM 46.4 °F 39.5 °F 46.4 °F 100% 29.89 in 6.2 mi WSW 17.3 mph - N/A   Mostly Cloudy
2:00 AM 46.4 °F 39.5 °F 46.4 °F 100% 29.89 in 6.2 mi WSW 17.3 mph - N/A   Mostly Cloudy
2:30 AM 46.4 °F 39.8 °F 46.4 °F 100% 29.89 in 6.2 mi WSW 16.1 mph - N/A   Scattered Clouds
3:00 AM 46.4 °F 39.8 °F 46.4 °F 100% 29.89 in 6.2 mi WSW 16.1 mph - N/A   Scattered Clouds
3:30 AM 46.4 °F 39.5 °F 44.6 °F 93% 29.89 in 6.2 mi West 17.3 mph - N/A   Partly Cloudy
4:00 AM 46.4 °F 40.7 °F 44.6 °F 93% 29.89 in 6.2 mi WSW 12.7 mph - N/A   Mostly Cloudy
4:30 AM 46.4 °F 40.7 °F 44.6 °F 93% 29.92 in 6.2 mi West 12.7 mph - N/A   Mostly Cloudy
5:00 AM 46.4 °F 40.4 °F 42.8 °F 87% 29.92 in 6.2 mi West 13.8 mph - N/A   Mostly Cloudy
5:30 AM 44.6 °F 38.1 °F 42.8 °F 93% 29.92 in 6.2 mi West 13.8 mph - N/A Rain Light Rain Showers
6:00 AM 42.8 °F 37.0 °F 41.0 °F 93% 29.95 in 6.2 mi West 10.4 mph - N/A   Partly Cloudy
6:30 AM 42.8 °F 37.5 °F 41.0 °F 93% 29.95 in 6.2 mi WSW 9.2 mph - N/A   Partly Cloudy
7:00 AM 43 °F - 40 °F 87% 29.98 in 31 mi WSW 8.9 mph - -   Partly Cloudy
7:00 AM 42.8 °F 38.0 °F 41.0 °F 93% 29.95 in 6.2 mi WSW 8.1 mph - N/A   Partly Cloudy
7:30 AM 42.8 °F 37.5 °F 41.0 °F 93% 29.98 in 6.2 mi WSW 9.2 mph - N/A   Partly Cloudy
8:00 AM 44.6 °F 38.8 °F 41.0 °F 87% 29.98 in 6.2 mi West 11.5 mph - N/A   Partly Cloudy
8:30 AM 46.4 °F 41.1 °F 41.0 °F 81% 29.98 in 6.2 mi WSW 11.5 mph - N/A   Partly Cloudy
9:00 AM 48.2 °F - 42.8 °F 82% 29.98 in 6.2 mi WSW 8.1 mph - N/A   Partly Cloudy
9:30 AM 48.2 °F - 41.0 °F 76% 30.01 in 6.2 mi West 13.8 mph - N/A   Mostly Cloudy
10:00 AM 50.0 °F - 41.0 °F 71% 30.01 in 6.2 mi WSW 15.0 mph - N/A   Mostly Cloudy
10:30 AM 50.0 °F - 39.2 °F 66% 30.01 in 6.2 mi West 16.1 mph - N/A   Mostly Cloudy
11:00 AM 50.0 °F - 41.0 °F 71% 30.01 in 6.2 mi West 13.8 mph - N/A   Mostly Cloudy
11:30 AM 51.8 °F - 39.2 °F 62% 30.01 in 6.2 mi West 15.0 mph - N/A   Mostly Cloudy
12:00 PM 51.8 °F - 42.8 °F 71% 30.01 in 6.2 mi WSW 13.8 mph - N/A   Mostly Cloudy
12:30 PM 53.6 °F - 41.0 °F 62% 30.01 in 6.2 mi WSW 11.5 mph - N/A   Mostly Cloudy
1:00 PM 54 °F - 41 °F 51% 30.03 in 37 mi WSW 13.4 mph - -   Partly Cloudy
1:00 PM 55.4 °F - 41.0 °F 58% 30.01 in 6.2 mi WSW 12.7 mph - N/A   Mostly Cloudy
1:30 PM 53.6 °F - 42.8 °F 67% 30.01 in 6.2 mi WSW 15.0 mph - N/A   Mostly Cloudy
2:00 PM 55.4 °F - 41.0 °F 58% 30.01 in 6.2 mi WSW 16.1 mph - N/A   Mostly Cloudy
2:30 PM 57.2 °F - 42.8 °F 59% 30.01 in 6.2 mi WSW 19.6 mph - N/A   Scattered Clouds
3:00 PM 57.2 °F - 42.8 °F 59% 30.01 in 6.2 mi WSW 20.7 mph 32.2 mph N/A   Scattered Clouds
3:30 PM 55.4 °F - 46.4 °F 72% 30.01 in 6.2 mi WSW 17.3 mph - N/A   Mostly Cloudy
4:00 PM 55.4 °F - 46.4 °F 72% 30.01 in 6.2 mi West 17.3 mph - N/A   Mostly Cloudy
4:30 PM 53.6 °F - 48.2 °F 82% 30.01 in 6.2 mi SW 17.3 mph - N/A   Mostly Cloudy
5:00 PM 51.8 °F - 50.0 °F 94% 30.04 in 6.2 mi SW 15.0 mph - N/A   Mostly Cloudy
5:30 PM 53.6 °F - 48.2 °F 82% 30.04 in 6.2 mi WSW 15.0 mph - N/A   Mostly Cloudy
6:00 PM 53.6 °F - 50.0 °F 88% 30.04 in 6.2 mi WSW 13.8 mph - N/A   Mostly Cloudy
6:30 PM 53.6 °F - 48.2 °F 82% 30.04 in 6.2 mi WSW 13.8 mph - N/A   Mostly Cloudy
7:00 PM 54 °F - 49 °F 77% 30.04 in 19 mi WSW 17.9 mph - -   Mostly Cloudy
7:00 PM 53.6 °F - 48.2 °F 82% 30.04 in 6.2 mi WSW 17.3 mph - N/A   Mostly Cloudy
7:30 PM 53.6 °F - 48.2 °F 82% 30.04 in 6.2 mi WSW 15.0 mph - N/A   Mostly Cloudy
8:00 PM 53.6 °F - 48.2 °F 82% 30.04 in 6.2 mi WSW 11.5 mph - N/A   Scattered Clouds
8:30 PM 51.8 °F - 50.0 °F 94% 30.04 in 6.2 mi WSW 15.0 mph - N/A   Mostly Cloudy
9:00 PM 51.8 °F - 50.0 °F 94% 30.04 in 6.2 mi WSW 15.0 mph - N/A   Mostly Cloudy
9:30 PM 51.8 °F - 50.0 °F 94% 30.06 in 6.2 mi WSW 13.8 mph - N/A   Light Drizzle
10:00 PM 51.8 °F - 50.0 °F 94% 30.06 in 6.2 mi WSW 10.4 mph - N/A   Light Drizzle
10:30 PM 51.8 °F - 50.0 °F 94% 30.06 in 6.2 mi SW 13.8 mph - N/A   Mostly Cloudy
11:00 PM 51.8 °F - 50.0 °F 94% 30.06 in 6.2 mi SW 15.0 mph - N/A   Mostly Cloudy
11:30 PM 51.8 °F - 50.0 °F 94% 30.06 in 6.2 mi WSW 12.7 mph - N/A   Mostly Cloudy